�������l�o���
Date,Time,MP-1(��Sv/h),MP-2(��Sv/h),MP-3(��Sv/h),MP-4(��Sv/h),MP-5(��Sv/h),MP-6(��Sv/h),MP-7(��Sv/h),MP-8(��Sv/h),����,����(m/s),���J
2018/08/22,00:00,0.862,1.271,0.895,1.593,1.164,0.478,0.840,0.793,��,7.6,��
2018/08/22,00:10,0.863,1.271,0.895,1.594,1.164,0.480,0.841,0.793,��,7.3,��
2018/08/22,00:20,0.864,1.272,0.894,1.594,1.163,0.479,0.842,0.794,��,7.5,��
2018/08/22,00:30,0.865,1.271,0.894,1.592,1.161,0.479,0.841,0.794,��,7.9,��
2018/08/22,00:40,0.864,1.271,0.894,1.593,1.162,0.480,0.840,0.792,��,8.8,��
2018/08/22,00:50,0.863,1.269,0.894,1.593,1.162,0.478,0.840,0.792,��,7.8,��
2018/08/22,01:00,0.862,1.272,0.894,1.595,1.163,0.478,0.841,0.793,��,7.3,��
2018/08/22,01:10,0.863,1.272,0.893,1.594,1.162,0.478,0.842,0.793,��,7.9,��
2018/08/22,01:20,0.863,1.269,0.895,1.592,1.164,0.481,0.842,0.794,��,7.5,��
2018/08/22,01:30,0.861,1.269,0.894,1.594,1.162,0.478,0.841,0.794,��,7.8,��
2018/08/22,01:40,0.862,1.270,0.894,1.594,1.162,0.480,0.841,0.793,��,7.1,��
2018/08/22,01:50,0.862,1.269,0.896,1.594,1.163,0.479,0.841,0.793,��,6.7,��
2018/08/22,02:00,0.863,1.269,0.896,1.592,1.162,0.480,0.842,0.792,��,7.1,��
2018/08/22,02:10,0.860,1.270,0.893,1.593,1.162,0.479,0.841,0.794,��,7.1,��
2018/08/22,02:20,0.862,1.269,0.895,1.594,1.163,0.478,0.841,0.793,��,6.7,��
2018/08/22,02:30,0.862,1.270,0.894,1.593,1.160,0.480,0.841,0.794,��,6.9,��
2018/08/22,02:40,0.863,1.269,0.896,1.594,1.163,0.479,0.840,0.793,��,7.0,��
2018/08/22,02:50,0.862,1.272,0.894,1.593,1.162,0.479,0.839,0.794,��,7.2,��
2018/08/22,03:00,0.862,1.269,0.893,1.594,1.161,0.478,0.841,0.792,��,6.8,��
2018/08/22,03:10,0.862,1.270,0.892,1.594,1.160,0.478,0.841,0.793,��,6.4,��
2018/08/22,03:20,0.862,1.270,0.893,1.590,1.161,0.478,0.840,0.793,��,7.3,��
2018/08/22,03:30,0.862,1.268,0.896,1.591,1.161,0.479,0.842,0.794,��,8.1,��
2018/08/22,03:40,0.860,1.272,0.895,1.593,1.162,0.479,0.842,0.794,��,8.0,��
2018/08/22,03:50,0.861,1.273,0.893,1.591,1.161,0.479,0.841,0.794,��,7.9,��
2018/08/22,04:00,0.863,1.270,0.893,1.594,1.162,0.479,0.842,0.793,��,7.5,��
2018/08/22,04:10,0.860,1.269,0.894,1.593,1.162,0.478,0.840,0.793,��,6.7,��
2018/08/22,04:20,0.861,1.270,0.893,1.592,1.159,0.478,0.840,0.794,��,7.3,��
2018/08/22,04:30,0.862,1.269,0.896,1.593,1.162,0.478,0.839,0.794,��,7.2,��
2018/08/22,04:40,0.859,1.272,0.891,1.594,1.163,0.480,0.840,0.792,��,7.8,��
2018/08/22,04:50,0.863,1.270,0.893,1.590,1.162,0.479,0.840,0.795,��,7.4,��
2018/08/22,05:00,0.862,1.271,0.892,1.592,1.162,0.480,0.841,0.793,��,7.2,��
2018/08/22,05:10,0.861,1.269,0.892,1.593,1.161,0.478,0.839,0.794,��,7.1,��
2018/08/22,05:20,0.862,1.271,0.894,1.592,1.161,0.478,0.840,0.795,��,8.2,��
2018/08/22,05:30,0.861,1.270,0.894,1.593,1.163,0.480,0.841,0.794,��,8.9,��
2018/08/22,05:40,0.863,1.271,0.894,1.594,1.160,0.478,0.841,0.794,��,8.7,��
2018/08/22,05:50,0.862,1.270,0.895,1.596,1.162,0.478,0.841,0.793,��,7.3,��
2018/08/22,06:00,0.862,1.272,0.893,1.594,1.162,0.479,0.848,0.794,��,7.4,��
2018/08/22,06:10,0.863,1.272,0.892,1.593,1.160,0.477,0.840,0.793,��,5.7,��
2018/08/22,06:20,0.861,1.270,0.895,1.593,1.160,0.478,0.843,0.795,��,5.5,��
2018/08/22,06:30,0.863,1.271,0.895,1.591,1.160,0.480,0.841,0.795,��,7.1,��
2018/08/22,06:40,0.863,1.270,0.896,1.591,1.161,0.479,0.840,0.793,��,7.6,��
2018/08/22,06:50,0.865,1.271,0.893,1.596,1.161,0.480,0.840,0.794,��,6.8,��
2018/08/22,07:00,0.865,1.270,0.893,1.595,1.162,0.482,0.839,0.794,��,6.1,��
2018/08/22,07:10,0.863,1.270,0.893,1.593,1.161,0.478,0.844,0.794,��,6.0,��
2018/08/22,07:20,0.863,1.273,0.895,1.593,1.161,0.480,0.841,0.793,��,5.9,��
2018/08/22,07:30,0.864,1.271,0.892,1.593,1.162,0.479,0.842,0.792,��쐼,6.0,��
2018/08/22,07:40,0.864,1.269,0.895,1.592,1.163,0.479,0.842,0.793,��쐼,7.1,��
2018/08/22,07:50,0.863,1.271,0.894,1.590,1.162,0.480,0.843,0.793,��쐼,7.3,��
2018/08/22,08:00,0.866,1.269,0.895,1.592,1.162,0.479,0.842,0.796,��쐼,6.5,��
2018/08/22,08:10,0.866,1.269,0.892,1.594,1.162,0.479,0.843,0.794,��쐼,4.5,��
2018/08/22,08:20,0.865,1.271,0.894,1.590,1.162,0.481,0.842,0.793,��,3.3,��
2018/08/22,08:30,0.864,1.268,0.894,1.592,1.164,0.479,0.842,0.794,��,4.5,��
2018/08/22,08:40,0.863,1.267,0.894,1.591,1.162,0.480,0.844,0.793,��,3.5,��
2018/08/22,08:50,0.862,1.271,0.893,1.593,1.161,0.481,0.842,0.791,��쓌,4.1,��
2018/08/22,09:00,0.864,1.271,0.892,1.592,1.163,0.479,0.842,0.794,��쓌,4.3,��
2018/08/22,09:10,0.864,1.269,0.891,1.591,1.163,0.480,0.844,0.791,��쓌,4.1,��
2018/08/22,09:20,0.863,1.270,0.894,1.592,1.164,0.481,0.843,0.793,��,4.8,��
2018/08/22,09:30,0.864,1.267,0.891,1.593,1.164,0.479,0.842,0.792,��,5.1,��
2018/08/22,09:40,0.865,1.270,0.895,1.596,1.166,0.481,0.842,0.792,��,2.3,��
2018/08/22,09:50,0.865,1.267,0.893,1.594,1.165,0.478,0.842,0.793,��쐼,2.2,��
2018/08/22,10:00,0.865,1.266,0.895,1.592,1.167,0.480,0.841,0.793,��쓌,3.3,��
2018/08/22,10:10,0.862,1.270,0.894,1.594,1.168,0.479,0.844,0.792,��쓌,3.1,��
2018/08/22,10:20,0.864,1.268,0.893,1.594,1.167,0.480,0.843,0.794,��쓌,3.8,��
2018/08/22,10:30,0.864,1.273,0.894,1.593,1.169,0.478,0.841,0.793,��쓌,4.1,��
2018/08/22,10:40,0.865,1.275,0.897,1.594,1.167,0.480,0.842,0.792,��쓌,4.3,��
2018/08/22,10:50,0.864,1.273,0.895,1.596,1.171,0.480,0.840,0.793,��쓌,5.5,��
2018/08/22,11:00,0.863,1.273,0.897,1.596,1.170,0.481,0.841,0.794,��쓌,7.0,��
2018/08/22,11:10,0.866,1.274,0.895,1.595,1.169,0.480,0.841,0.793,��쓌,6.2,��
2018/08/22,11:20,0.868,1.273,0.897,1.596,1.169,0.481,0.843,0.793,��,5.4,��
2018/08/22,11:30,0.867,1.273,0.900,1.594,1.172,0.480,0.844,0.796,��,5.3,��
2018/08/22,11:40,0.869,1.274,0.894,1.594,1.172,0.480,0.842,0.795,��,4.7,��
2018/08/22,11:50,0.867,1.275,0.897,1.594,1.170,0.481,0.843,0.793,��쓌,6.1,��
2018/08/22,12:00,0.867,1.275,0.896,1.597,1.173,0.481,0.842,0.797,��쓌,7.6,��
2018/08/22,12:10,0.868,1.276,0.897,1.595,1.172,0.481,0.844,0.796,��,6.6,��
2018/08/22,12:20,0.864,1.274,0.898,1.593,1.173,0.482,0.845,0.794,��,7.4,��
2018/08/22,12:30,0.867,1.274,0.897,1.596,1.174,0.479,0.844,0.793,��,8.5,��
2018/08/22,12:40,0.866,1.275,0.898,1.594,1.173,0.480,0.847,0.795,��,7.4,��
2018/08/22,12:50,0.870,1.277,0.899,1.594,1.171,0.482,0.848,0.795,��,7.0,��
2018/08/22,13:00,0.867,1.275,0.899,1.596,1.173,0.481,0.846,0.794,��,6.7,��
2018/08/22,13:10,0.866,1.273,0.898,1.596,1.176,0.481,0.847,0.796,��,7.0,��
2018/08/22,13:20,0.869,1.276,0.899,1.597,1.172,0.481,0.847,0.796,��,7.2,��
2018/08/22,13:30,0.868,1.272,0.899,1.597,1.175,0.480,0.847,0.797,��,8.0,��
2018/08/22,13:40,0.867,1.275,0.898,1.600,1.172,0.481,0.847,0.797,��,8.2,��
2018/08/22,13:50,0.867,1.269,0.901,1.599,1.173,0.480,0.846,0.797,��,8.3,��
2018/08/22,14:00,0.866,1.275,0.899,1.600,1.174,0.481,0.847,0.798,��,8.4,��
2018/08/22,14:10,0.868,1.272,0.899,1.600,1.175,0.480,0.846,0.796,��쓌,9.7,��
2018/08/22,14:20,0.868,1.273,0.897,1.598,1.174,0.481,0.846,0.796,��,9.9,��
2018/08/22,14:30,0.868,1.275,0.898,1.600,1.173,0.478,0.846,0.798,��,8.5,��
2018/08/22,14:40,0.865,1.273,0.898,1.601,1.173,0.478,0.846,0.796,��,8.4,��
2018/08/22,14:50,0.865,1.272,0.897,1.596,1.176,0.479,0.846,0.797,��,8.8,��
2018/08/22,15:00,0.867,1.278,0.898,1.599,1.175,0.478,0.845,0.794,��,7.8,��
2018/08/22,15:10,0.867,1.272,0.896,1.598,1.174,0.478,0.845,0.794,��,9.0,��
2018/08/22,15:20,0.868,1.274,0.896,1.598,1.173,0.476,0.844,0.796,��,9.5,��
2018/08/22,15:30,0.866,1.275,0.897,1.598,1.174,0.476,0.844,0.793,��,9.2,��
2018/08/22,15:40,0.866,1.275,0.897,1.598,1.172,0.475,0.842,0.794,��,9.2,��
2018/08/22,15:50,0.868,1.274,0.897,1.600,1.172,0.478,0.846,0.793,��,8.6,��
2018/08/22,16:00,0.867,1.273,0.898,1.599,1.171,0.477,0.843,0.796,��,8.4,��
2018/08/22,16:10,0.865,1.275,0.898,1.600,1.175,0.476,0.843,0.795,��,9.5,��
2018/08/22,16:20,0.869,1.274,0.897,1.600,1.172,0.476,0.843,0.794,��,9.8,��
2018/08/22,16:30,0.867,1.276,0.898,1.600,1.174,0.476,0.844,0.795,��,8.3,��
2018/08/22,16:40,0.868,1.274,0.899,1.601,1.172,0.477,0.843,0.795,��,7.4,��
2018/08/22,16:50,0.865,1.275,0.897,1.601,1.171,0.476,0.844,0.794,��,6.8,��
2018/08/22,17:00,0.866,1.278,0.897,1.599,1.170,0.477,0.843,0.796,��,7.3,��
2018/08/22,17:10,0.865,1.276,0.896,1.598,1.171,0.478,0.843,0.795,��,7.1,��
2018/08/22,17:20,0.868,1.274,0.894,1.600,1.171,0.476,0.843,0.795,��,6.6,��
2018/08/22,17:30,0.865,1.278,0.895,1.599,1.170,0.478,0.842,0.794,��,7.7,��
2018/08/22,17:40,0.866,1.276,0.894,1.600,1.171,0.479,0.843,0.796,��,8.4,��
2018/08/22,17:50,0.867,1.276,0.895,1.599,1.170,0.478,0.845,0.795,��,8.6,��
2018/08/22,18:00,0.866,1.274,0.897,1.599,1.171,0.475,0.840,0.793,��,9.0,��
2018/08/22,18:10,0.865,1.274,0.896,1.599,1.171,0.476,0.842,0.793,��,10.0,��
2018/08/22,18:20,0.865,1.274,0.895,1.599,1.169,0.475,0.841,0.795,��,9.9,��
2018/08/22,18:30,0.865,1.273,0.898,1.597,1.169,0.476,0.841,0.793,��,8.7,��
2018/08/22,18:40,0.865,1.274,0.896,1.598,1.172,0.477,0.841,0.794,��,7.7,��
2018/08/22,18:50,0.863,1.273,0.893,1.600,1.171,0.476,0.840,0.794,��,9.4,��
2018/08/22,19:00,0.865,1.274,0.894,1.597,1.170,0.476,0.843,0.793,��,8.8,��
2018/08/22,19:10,0.865,1.277,0.894,1.597,1.169,0.476,0.841,0.793,��,8.8,��
2018/08/22,19:20,0.864,1.273,0.893,1.599,1.170,0.477,0.842,0.793,��,6.7,��
2018/08/22,19:30,0.864,1.274,0.895,1.601,1.169,0.477,0.842,0.796,��,6.2,��
2018/08/22,19:40,0.865,1.275,0.897,1.599,1.172,0.477,0.843,0.793,��,5.3,��
2018/08/22,19:50,0.866,1.278,0.899,1.599,1.170,0.477,0.843,0.795,��쐼,4.7,��
2018/08/22,20:00,0.864,1.276,0.895,1.599,1.171,0.476,0.841,0.794,��쐼,3.2,��
2018/08/22,20:10,0.865,1.273,0.896,1.601,1.172,0.478,0.841,0.794,��,4.5,��
2018/08/22,20:20,0.866,1.273,0.899,1.598,1.171,0.478,0.843,0.794,��,5.1,��
2018/08/22,20:30,0.864,1.275,0.895,1.597,1.172,0.477,0.841,0.796,��,4.2,��
2018/08/22,20:40,0.865,1.277,0.895,1.601,1.171,0.478,0.843,0.794,��쐼,4.3,��
2018/08/22,20:50,0.865,1.275,0.896,1.602,1.169,0.479,0.844,0.795,��쐼,4.6,��
2018/08/22,21:00,0.867,1.274,0.897,1.598,1.170,0.478,0.842,0.794,��,4.6,��
2018/08/22,21:10,0.866,1.275,0.897,1.599,1.170,0.478,0.841,0.793,��,5.7,��
2018/08/22,21:20,0.866,1.276,0.896,1.598,1.172,0.478,0.843,0.795,��,6.0,��
2018/08/22,21:30,0.866,1.274,0.896,1.600,1.173,0.478,0.843,0.794,��,6.3,��
2018/08/22,21:40,0.866,1.273,0.896,1.602,1.170,0.478,0.844,0.795,��쐼,5.0,��
2018/08/22,21:50,0.866,1.274,0.895,1.599,1.170,0.477,0.842,0.795,��쐼,5.4,��
2018/08/22,22:00,0.865,1.273,0.896,1.601,1.171,0.478,0.843,0.795,��쐼,4.3,��
2018/08/22,22:10,0.865,1.274,0.895,1.599,1.171,0.478,0.844,0.797,��,2.3,��
2018/08/22,22:20,0.864,1.275,0.895,1.600,1.170,0.478,0.843,0.793,��쐼,4.1,��
2018/08/22,22:30,0.864,1.274,0.895,1.598,1.168,0.477,0.841,0.795,��,4.1,��
2018/08/22,22:40,0.868,1.273,0.897,1.597,1.169,0.477,0.843,0.795,��,4.0,��
2018/08/22,22:50,0.868,1.276,0.896,1.597,1.169,0.478,0.842,0.794,��,3.6,��
2018/08/22,23:00,0.866,1.274,0.895,1.598,1.168,0.478,0.842,0.795,��,4.8,��
2018/08/22,23:10,0.867,1.274,0.897,1.599,1.169,0.476,0.842,0.796,��,4.2,��
2018/08/22,23:20,0.868,1.275,0.897,1.596,1.171,0.480,0.842,0.795,��,5.2,��
2018/08/22,23:30,0.865,1.274,0.897,1.598,1.170,0.479,0.841,0.794,��,5.8,��
2018/08/22,23:40,0.868,1.271,0.895,1.596,1.171,0.477,0.842,0.794,��,6.6,��
2018/08/22,23:50,0.867,1.273,0.896,1.598,1.168,0.479,0.843,0.793,��,7.2,��
